Hourly Data Report for September 13, 2019

SAINT JOHN A
NEW BRUNSWICK
Current Station Operator: NAVCAN

45°18'58.000" N
65°53'24.000" W
108.80 m
8104901
71609
YSJ

Download Data

Hourly Data (September 2019)
Hourly Data Report for September 13, 2019
TIME
LST
Temp Definition
°C
Dew Point Definition
°C
Rel Hum Definition
%
Precip. Amount Definition
mm

Wind Dir Definition
10's deg

Wind Spd Definition
km/h
Visibility Definition
km
Stn Press Definition
kPa
Hmdx Definition


Wind Chill Definition


Weather Definition


00:00 8.6 7.8 94   2 9 24.1 101.15     LegendNANA
01:00 8.3 7.3 93   2 8 24.1 101.24     LegendNANA
02:00 8.0 6.5 91   36 11 24.1 101.28     Mainly Clear
03:00 4.2 3.9 98   4 7 24.1 101.33     LegendNANA
04:00 4.2 4.2 100   11 3 24.1 101.41     LegendNANA
05:00 3.3 3.3 100   36 3 24.1 101.53     Clear
06:00 2.3 2.3 100   2 4 24.1 101.65     LegendNANA
07:00 5.6 4.8 94   5 11 24.1 101.70     LegendNANA
08:00 9.0 4.5 73   1 17 24.1 101.79     Clear
09:00 10.3 4.9 69   1 17 24.1 101.84     LegendNANA
10:00 12.5 4.6 59   35 25 24.1 101.86     LegendNANA
11:00 14.2 4.9 53   1 24 24.1 101.88     Mainly Clear
12:00 15.8 5.3 49   35 20 24.1 101.90     LegendNANA
13:00 16.3 4.7 46   36 22 24.1 101.89     LegendNANA
14:00 17.4 5.1 44   1 13 24.1 101.87     Mainly Clear
15:00 16.9 4.7 44   36 10 24.1 101.86     LegendNANA
16:00 16.9 3.7 41   36 4 24.1 101.87     LegendNANA
17:00 15.8 5.9 51   16 11 24.1 101.89     Mainly Clear
18:00 14.6 6.0 56   17 7 24.1 101.89     LegendNANA
19:00 10.8 7.0 77   21 6 24.1 101.94     LegendNANA
20:00 8.8 7.2 90   36 3 24.1 101.96     Mainly Clear
21:00 4.8 4.6 99   36 1 24.1 101.99     LegendNANA
22:00 4.5 4.3 99   4 4 24.1 101.97     LegendNANA
23:00 4.7 4.7 100   1 6 24.1 101.93     Clear

Notes on Data Quality.

Legend

  • E = Estimated
  • M = Missing
  • NA = Not Available*
  • [empty] = Indicates an unobserved value
Date modified: